Regional Weather Roundup
Issued by NWS Sterling, VA

Home | Current Version | Previous Version | Graphics & Text | Print | Product List | Glossary On
Versions: 1 2 3 4 5 6 7 8 9 10 11 12 13 14 15 16 17 18 19 20 21 22 23 24 25 26 27 28 29 30 31 32 33 34 35 36 37 38 39 40 41 42 43 44 45 46 47 48 49 50
918
ASUS41 KLWX 202211
RWRLWX

REGIONAL WEATHER ROUNDUP
NATIONAL WEATHER SERVICE BALTIMORE MD/WASHINGTON DC
600 PM EDT SUN MAY 20 2018

Note: "FAIR" indicates few or no clouds below 12,000 feet
with no significant weather and/or obstructions to visibility.
 TC=TEMPERATURE CELSIUS

 * =Non NWS site. Station does not report precipitation (e.g. rain,
    snow, etc.), thunder, or fog.

DCZ001-MDZ009-015-VAZ040>042-051-053>054-202300-
WASHINGTON METRO

CITY           SKY/WX    TMP DP  RH WIND       PRES   REMARKS
WASHINGTON NAT FAIR      89  62  40 NW12G17   29.99S
DULLES         PTSUNNY   85  64  49 W10       29.99F
ANDREWS AFB    FAIR      85  67  53 CALM      29.99S
FT BELVOIR     FAIR      78  73  82 S3        29.99S
QUANTICO       PTSUNNY   81  71  71 CALM      30.00S
COLLEGE PARK*  FAIR      86  63  45 W5        29.98S
LEESBURG*      FAIR      86  63  45 NW12G18   30.01S
MANASSAS*      FAIR      84  69  60 S7        30.00S
GAITHERSBURG*  FAIR      83  62  49 W12       30.02R

$$

MDZ006>007-011-014-202300-
BALTIMORE METRO

CITY           SKY/WX    TMP DP  RH WIND       PRES   REMARKS
BWI AIRPORT    PTSUNNY   85  63  47 W12       29.98R
MD SCIENCE CTR   N/A     88  62  41 MISG      29.96S
MARTIN STATE   PTSUNNY   86  66  51 W10       29.99S
ANNAPOLIS      FAIR      81  69  67 VRB7      29.97S

$$

MDZ012-015-019>023-202300-
MARYLAND EASTERN SHORE

CITY           SKY/WX    TMP DP  RH WIND       PRES   REMARKS
OCEAN CITY     FAIR      77  71  82 S9        30.01S
SALISBURY      FAIR      83  70  64 SW8       30.00S
BAY BRIDGE AP* FAIR      84  70  61 S7        29.98F
CAMBRIDGE*     SUNNY     84  70  61 VRB6      30.00S
EASTON*        MOSUNNY   84  68  58 SW9       30.03S

$$

MDZ017>025-202300-
SOUTHERN MARYLAND

CITY           SKY/WX    TMP DP  RH WIND       PRES   REMARKS
PATUXENT RIVER FAIR      88  69  53 SW7       30.00S HX  92
ST INIGOES     NOT AVBL
LEONARDTOWN*   FAIR      84  68  58 SW5       30.02S

$$

MDZ003>005-202300-
NORTH CENTRAL MARYLAND

CITY           SKY/WX    TMP DP  RH WIND       PRES   REMARKS
FREDERICK*     MOSUNNY   88  57  35 N10       30.03R
HAGERSTOWN APT FAIR      84  62  47 NW12      30.02R
WESTMINSTER*   FAIR      86  64  48 NW7       30.02S

$$

MDZ501>502-202300-
WESTERN MARYLAND

CITY           SKY/WX    TMP DP  RH WIND       PRES   REMARKS
OAKLAND*       PTSUNNY   72  59  64 NW8       30.16S
CUMBERLAND*    FAIR      82  59  44 W9        30.08S

$$

VAZ025>031-202300-
SHENANDOAH VALLEY

CITY           SKY/WX    TMP DP  RH WIND       PRES   REMARKS
WINCHESTER*    FAIR      81  59  47 NW15      30.04S
FRONT ROYAL*   FAIR      86  59  39 NW6       30.01F
LURAY*         FAIR      86  55  35 NW8       30.03S
NEW MARKET*    FAIR      85  56  36 NW3       30.00F
STAUNTON*      FAIR      85  60  43 NW8       30.07R
WAYNESBORO*    CLOUDY    69  68  94 SW6       30.08R

$$

WVZ021-048>050-054>055-202300-
EASTERN WEST VIRGINIA PANHANDLE

CITY           SKY/WX    TMP DP  RH WIND       PRES   REMARKS
MARTINSBURG    LGT RAIN  80  63  55 NW9       30.01R
PETERSBURG*    FAIR      82  58  44 NW12      30.05S

$$

VAZ036>039-050-202300-
CENTRAL FOOTHILLS

CITY           SKY/WX    TMP DP  RH WIND       PRES   REMARKS
CHARLOTTESVILL FAIR      78  71  79 S5        30.02F
CULPEPER*      FAIR      81  69  65 S6        30.01F
ORANGE*        CLOUDY    73  66  78 S9G16     30.02R
GORDONSVILLE*  FAIR      84  72  67 NE5       30.01R HX  90
WARRENTON*     FAIR      87  64  46 SW3       30.00S

$$

VAZ055>057-202300-
NORTH AND CENTRAL PIEDMONT

CITY           SKY/WX    TMP DP  RH WIND       PRES   REMARKS
FREDERICKSBRG* FAIR      88  68  51 SW5       29.99S HX  91
STAFFORD*      FAIR      86  68  54 CALM      30.04R HX  90

$$

NCZ024-NYZ072-PAZ021-071-VAZ022-071-202300-
OTHER REGIONAL OBSERVATIONS

CITY           SKY/WX    TMP DP  RH WIND       PRES   REMARKS
NEW YORK CITY  PTSUNNY   78  61  55 NW7G17    29.97R
PHILADELPHIA   PTSUNNY   82  63  52 NW14      29.98R
PITTSBURGH     FAIR      72  59  63 N13       30.12R
ROANOKE        PTSUNNY   85  60  42 W8        30.08F
RICHMOND       PTSUNNY   86  68  54 SW8       30.02S
RALEIGH        PTSUNNY   81  71  71 SW8       30.09R

$$

ANZ530>537-202300-
MARINE OBSERVATIONS

STATION/POSITION TIME  TEMP    WIND        PRES
                       AIR SEA DIR/SP/G
                 (UTC) (F)     (DEG/KT/KT) (MB)
THOMAS PT LIGHT  2200   75 67  160/  7/  7 1016.0F
BALT KEY BRIDGE  2148   85     260/  8/ 10 1015.0R
COVE POINT       2148   85     280/  5/  7 1016.4S
LEWISETTA        2148   84 73  230/  8/  9 1016.0F
SOLOMONS ISLAND  2148   82 69  230/  7/ 10 1015.7R
PINEY POINT      2142          260/  2/  4   N/A

$$





USA.gov is the U.S. government's official web portal to all federal, state and local government web resources and services.